Location: ????????
(55.6333°N, 37.7000°E)
Time: 07:42:00
(UTC+00:00)

SWARM A - Pass Details

Date: 19 May 2025
Orbit: 436 x 441 km, 87.3° (Epoch: 15 June)

Event Time Altitude Azimuth Distance (km) Brightness Sun altitude
Exits shadow 19:15:40 10° 183° (S) 1,597 6.6 -9.5°
Reaches altitude 10° 19:15:45 10° 183° (S) 1,565 6.5 -9.5°
Maximum altitude 19:19:09 88° 274° (W) 452 4.3 -9.8°
Drops below altitude 10° 19:22:34 10° 3° (N) 1,577 8.0 -10.0°
Sets 19:24:38 0° 4° (N) 2,453 9.1 -10.2°
